769  
ASUS46 KSGX 211311  
RWRSGX  
 
SAN DIEGO HOURLY WEATHER ROUNDUP  
NATIONAL WEATHER SERVICE SAN DIEGO CA  
500 AM PST THU FEB 21 2019  
 
NOTE: "FAIR" INDICATES FEW OR NO CLOUDS BELOW 12,000 FEET WITH NO  
SIGNIFICANT WEATHER AND/OR S TO VISIBILITY
.  
 
CAZ042-043-060-061-PZZ750-775-211400-  
 
GREATER SAN DIEGO AREA  
 
CITY SKY/WX TMP DP RH WIND PRES REMARKS
 
SAN DIEGO AP MOCLDY 53 40 61 W15G21 29.71S  
NATIONAL CITY N/A 52 45 77 W7 29.70F  
CHULA VISTA N/A 49 45 86 W6 29.61S  
IMPERIAL BEACH LGT RAIN 52 43 71 W15 29.71F  
BROWN FIELD LGT RAIN 48 44 86 W6 29.69F FOG  
MIRAMAR MCAS CLOUDY 51 40 65 W10 29.67F  
MONTGOMERY FLD MOCLDY 49 41 74 W12 29.68S  
GILLESPIE FLD MOCLDY 48 41 76 MISG 29.68S  
 

 
 
NORTH SAN DIEGO COUNTY  
 
CITY SKY/WX TMP DP RH WIND PRES REMARKS
 
CAMP PENDLETON MOCLDY 49 40 71 W12G18 29.65F  
OCEANSIDE AP MOCLDY 51 41 68 W16G23 29.65F  
OCEANSIDE HBR N/A 53 45 73 SW15 29.68F  
VISTA N/A 47 41 79 CALM 29.64F  
CARLSBAD MOCLDY 52 39 61 W10G18 29.65F  
DEL MAR N/A 51 44 76 NW7 29.69S  
LA JOLLA SCRIP N/A 51 44 75 W12 29.68F  
FALLBROOK PTSUNNY 45 37 76 S5 29.65F  
ESCONDIDO N/A 46 42 86 W3 29.69S  
SAN MARCOS N/A 47 41 79 NW9 29.71F  
POWAY N/A 44 41 90 CALM 29.71F  
 

 
 
EAST SAN DIEGO COUNTY  
 
CITY SKY/WX TMP DP RH WIND PRES REMARKS
 
RAMONA MOCLDY 42 38 85 W12 29.64F  
LA MESA N/A 46 43 89 CALM 29.65S  
JAMUL N/A 43 42 95 CALM 29.71F  
CAMPO N/A 38 34 85 W18 29.58R WCI 28  
 

 
 
ORANGE COUNTY AND THE LOS ANGELES BASIN  
 
CITY SKY/WX TMP DP RH WIND PRES REMARKS
 
JOHN WAYNE AP PTCLDY 50 38 63 W7 29.63F  
LAKE FOREST FR N/A 42 39 89 CALM 29.53F  
HUNTINGTON BCH N/A 50 42 74 NW2 29.65F  
LOS ALAMITOS FAIR 43 41 93 CALM 29.62F  
FULLERTON LGT RAIN 43 39 86 CALM 29.62S FOG  
LONG BEACH CLEAR 44 40 85 CALM 29.62F  
L.A. AP MOCLDY 45 40 82 CALM 29.63F  
L.A. DOWNTOWN CLEAR 43 40 89 CALM 29.62F  
 

 
 
THE INLAND EMPIRE  
 
CITY SKY/WX TMP DP RH WIND PRES REMARKS
 
CORONA CLEAR 46 39 76 SW8 29.61F  
CHINO MOCLDY 43 43 100 CALM 29.62S FOG  
ONTARIO CLOUDY 44 41 89 W3 29.60F  
SAN BERNARDINO CLOUDY 43 38 83 NE5 29.60S  
RIVERSIDE AP CLOUDY 44 41 89 VRB6 29.60F  
MORENO VALLEY N/A 41 41 100 CALM 27.73F  
MARCH ARB PTCLDY 40 40 100 S3 29.59S  
HORSETHIEF CYN N/A 41 35 78 NW2 29.63F  
PERRIS N/A 39 39 99 SE5 29.61S  
HEMET EAST N/A 39 34 82 S3 29.57F  
FRENCH VALLEY PTSUNNY 43 37 81 S7 29.62F  
TEMECULA N/A 44 42 93 SW8 29.62F  
 

 
 
SAN BERNARDINO AND RIVERSIDE COUNTY MOUNTAINS  
 
CITY SKY/WX TMP DP RH WIND PRES REMARKS
 
BIG BEAR AP LGT SNOW 23 19 86 W8G18 29.43S WCI 14  
ANGELUS OAKS N/A 26 23 90 CALM 29.59F  
 

 
 
SOUTHERN DESERT INCLUDING THE COACHELLA VALLEY  
 
CITY SKY/WX TMP DP RH WIND PRES REMARKS
 
PALM SPRINGS CLOUDY 47 40 76 NW7 29.61R  
PALM DESERT N/A 47 40 75 CALM 29.49S  
THERMAL CLEAR 53 31 42 NW21G28 29.58R  
BORREGO AP CLOUDY 46 37 71 E8G14 29.60S  
BLYTHE PTCLDY 48 39 71 S15 29.60S  
IMPERIAL AP PTCLDY 48 36 63 SW21 29.61S  
YUMA AZ CLOUDY 50 38 63 CALM 29.64R  
 

 
 
UPPER DESERT  
 
CITY SKY/WX TMP DP RH WIND PRES REMARKS
 
HESPERIA N/A 33 31 94 CALM 29.66S  
APPLE VALLEY N/A 34 30 85 NE1 29.64F  
PALMDALE CLOUDY 37 28 70 W14 29.56F WCI 28  
LANCASTER CLOUDY 36 29 75 W16 29.58S WCI 26  
EDWARDS AFB LGT RAIN 36 36 100 W5 29.56R WCI 32  
DAGGETT CLOUDY 38 33 82 W8 29.56F WCI 32  
29 PALMS N CLOUDY 37 34 89 SW5 29.65S WCI 33  
NEEDLES LGT RAIN 41 37 86 N7 29.62R  
 

 
 
REGIONAL REPORTS  
 
CITY SKY/WX TMP DP RH WIND PRES REMARKS
 
SANTA BARBARA MOCLDY 44 37 76 W5 29.65F  
SANDBERG MOCLDY 27 24 89 N17 29.54S WCI 14  
LAS VEGAS NV LGT RAIN 35 35 100 CALM 29.55S  
PHOENIX AZ CLOUDY 48 34 58 E14 29.65F  
TIJUANA RAIN 48 45 87 SW5 29.92R  
 

 
 
OFFSHORE ISLANDS  
 
CITY SKY/WX TMP DP RH WIND PRES REMARKS
 
CATALINA ARPT MOCLDY 43 38 82 W22G31 29.62F  
SAN CLEMENTE I MOCLDY 50 42 74 MISG 29.70S  
SAN NICOLAS IS CLOUDY 47 32 56 NW18G28 29.68F  
 

 
 
MARINE AND OFFSHORE BUOY REPORTS  
 
STATION/POSITION SKY/WX TEMP WIND PRES VSBY SWELL
 
AIR SEA DIR/SP/G HT/PER/DIR  
(F) (DEG/KT/KT) (MB) (MI) (FT/S/D)  
TANNER BANKS 52 58 1006.6F  
S CLEMENTE BASIN 55 59 280/ 21/ 25 1005.5F 2/300/13  
SAN NICOLAS IS. 56 N/A 3/310/14  
SO. S. ROSA ISLA 51 56 320/ 21/ 27 1005.6 7/310/ 9  
W. S. BARBARA CH 1005.2S 7/300/10  
M. S. BARBARA CH 50 57 300/ 17/ 23 1004.8F 3/260/ 9  
S. MONICA BASIN 52 57 280/ 23/ 31 1003.4F 2/150/14  
S PEDRO CHANNEL 56 N/A 2/270/13  
OCEANSIDE OFFSHR 58 N/A 2/270/13  
TORREY PINES OTR 58 N/A 2/280/14  
SAN DIEGO BAY 1005.0F  
IMPERIAL BEACH 58 N/A 2/270/13  
POINT LOMA SOUTH 59 N/A 2/290/13  
 

 
 
 
 
CLICK HERE TO GO TO PREVIOUS BULLETINS.

The Nexlab CA Page Main Text Page